Weather in Novaya Krasavka

Russia / Saratov Oblast     51°33′08″N   44°56′26″E
temp.,
°C
wind,
m/s
gust,
m/s
humid.,
%
clouds,
%
prec.,
mm/h
press.,
hPa
HPBL,
m
9 march, tue
tue901:00−6wnw2395100 0.1 100839
04:00−11nw129099 0.1 100921
07:00−13nnw129288 0.0 101021
10:00−10nnw229344 0.0 101186
13:00−7nnw34882 0.0 1011305
16:00−7nw458918 0.0 1012439
19:00−11nw479695 0.0 1013121
22:00−15nw499674 0.0 1015148
10 march, wed
wed1001:00−17nw479862 0.0 1016101
04:00−18wnw479978 0.0 1018123
07:00−19wnw499989 0.0 1020148
10:00−17nw5109495 0.1 1021346
13:00−16nw689098 0.0 1022515
16:00−15nw698999 0.0 1023600
19:00−19nw4995100 0.0 1024176
22:00−22nw469869 0.0 1026100
11 march, thu
thu1101:00−24nw349938 0.0 102767
04:00−25nnw349837 0.0 102948
07:00−27nnw34980 0.0 103058
10:00−23n46950 0.0 1031204
13:00−18nnw35890 0.0 1031277
16:00−16nw46870 0.0 1031403
19:00−19nw47950 0.0 103098
22:00−21nnw34960 0.0 103271
12 march, fri
fri1201:00−21nnw339938 0.0 103226
04:00−21n2310057 0.0 103320
07:00−22n23997 0.0 103420
10:00−17nne22946 0.0 1035101
13:00−12ene118521 0.0 1035265
16:00−10s118233 0.0 1034359
19:00−15s229326 0.0 103520
22:00−17sse229113 0.0 103620
13 march, sat
sat1301:00−18s23950 0.0 103620
04:00−19s23960 0.0 103620
07:00−19sse33950 0.0 103623
10:00−14s359010 0.0 1036190
13:00−10s588653 0.0 1036442
16:00−9s588365 0.0 1034601
19:00−11sse4990100 0.0 1032205
22:00−13sse488792 0.0 1032142